| time (UTC) | temp F | wind direction | speed MPH | gust MPH | rain 1hr in | rain 24hr in | rain mn in | humidity % | barometer mb |
| 20260506014208 | 45 | 303 | 1.0 | 6.0 | 0.00 | 0.02 | 0.02 | 82 | 1007.7 |
| 20260506013707 | 45 | 23 | 4.0 | 6.0 | 0.00 | 0.02 | 0.02 | 81 | 1008.0 |
| 20260506013207 | 46 | 327 | 4.0 | 6.0 | 0.00 | 0.02 | 0.02 | 79 | 1007.8 |
| 20260506012707 | 47 | 330 | 4.0 | 7.0 | 0.00 | 0.02 | 0.02 | 76 | 1007.9 |
| 20260506012207 | 48 | 338 | 3.0 | 7.0 | 0.00 | 0.02 | 0.02 | 71 | 1007.9 |
| 20260506011707 | 49 | 338 | 1.0 | 1.0 | 0.00 | 0.02 | 0.02 | 60 | 1008.2 |
| 20260506011207 | 49 | 320 | 0.0 | 2.0 | 0.00 | 0.02 | 0.02 | 60 | 1007.8 |
| 20260506010707 | 49 | 333 | 1.0 | 2.0 | 0.00 | 0.02 | 0.02 | 58 | 1007.7 |
| 20260506010207 | 49 | 340 | 1.0 | 1.0 | 0.00 | 0.02 | 0.02 | 60 | 1007.7 |
| 20260506005709 | 49 | 223 | 0.0 | 1.0 | 0.00 | 0.02 | 0.02 | 58 | 1007.4 |
| 20260506005425 | 49 | 211 | 1.0 | 1.0 | 0.00 | 0.02 | 0.02 | 58 | 1007.3 |
| 20260506004706 | 49 | 186 | 0.0 | 3.0 | 0.00 | 0.02 | 0.02 | 58 | 1007.3 |
| 20260506004207 | 50 | 176 | 0.0 | 3.0 | 0.00 | 0.02 | 0.02 | 58 | 1007.4 |
| 20260506003706 | 50 | 152 | 1.0 | 3.0 | 0.00 | 0.02 | 0.02 | 58 | 1007.5 |
| 20260506003423 | 50 | 213 | 1.0 | 3.0 | 0.00 | 0.02 | 0.02 | 59 | 1007.2 |
| 20260506002934 | 50 | 221 | 1.0 | 3.0 | 0.00 | 0.02 | 0.02 | 59 | 1007.2 |
| 20260506002206 | 50 | 170 | 1.0 | 3.0 | 0.00 | 0.02 | 0.02 | 60 | 1006.9 |
| 20260506001707 | 50 | 195 | 2.0 | 2.0 | 0.00 | 0.02 | 0.02 | 60 | 1006.9 |
| 20260506001207 | 50 | 160 | 1.0 | 3.0 | 0.00 | 0.02 | 0.02 | 60 | 1006.9 |
| 20260506000912 | 50 | 165 | 3.0 | 3.0 | 0.00 | 0.02 | 0.02 | 59 | 1006.9 |
| 20260506000854 | 50 | 168 | 3.0 | 3.0 | 0.00 | 0.02 | 0.02 | 59 | 1007.0 |
| 20260505235709 | 50 | 176 | 2.0 | 6.0 | 0.00 | 0.02 | 0.02 | 58 | 1006.7 |
| 20260505235207 | 50 | 177 | 4.0 | 6.0 | 0.00 | 0.02 | 0.02 | 58 | 1006.5 |
| 20260505234707 | 50 | 148 | 3.0 | 4.0 | 0.00 | 0.02 | 0.02 | 57 | 1006.4 |
| 20260505234207 | 50 | 181 | 2.0 | 4.0 | 0.00 | 0.02 | 0.02 | 59 | 1006.3 |
| 20260505233707 | 50 | 176 | 1.0 | 6.0 | 0.00 | 0.02 | 0.02 | 59 | 1006.3 |
| 20260505233206 | 50 | 168 | 2.0 | 6.0 | 0.00 | 0.02 | 0.02 | 59 | 1006.4 |
| 20260505232926 | 50 | 200 | 1.0 | 4.0 | 0.00 | 0.02 | 0.02 | 60 | 1006.3 |
| 20260505232206 | 50 | 187 | 4.0 | 4.0 | 0.00 | 0.02 | 0.02 | 58 | 1006.4 |
| 20260505231925 | 50 | 160 | 1.0 | 4.0 | 0.00 | 0.02 | 0.02 | 60 | 1006.6 |
| 20260505231206 | 50 | 173 | 2.0 | 6.0 | 0.00 | 0.02 | 0.02 | 60 | 1006.4 |
| 20260505230707 | 50 | 147 | 2.0 | 6.0 | 0.00 | 0.02 | 0.02 | 59 | 1006.7 |
| 20260505230435 | 50 | 159 | 3.0 | 7.0 | 0.00 | 0.02 | 0.02 | 60 | 1006.9 |
| 20260505225706 | 50 | 168 | 2.0 | 8.0 | 0.00 | 0.02 | 0.02 | 60 | 1006.7 |
| 20260505225206 | 50 | 155 | 6.0 | 8.0 | 0.00 | 0.02 | 0.02 | 59 | 1006.6 |
| 20260505224707 | 50 | 174 | 2.0 | 8.0 | 0.00 | 0.02 | 0.02 | 60 | 1006.6 |
| 20260505224207 | 50 | 149 | 5.0 | 7.0 | 0.00 | 0.02 | 0.02 | 59 | 1006.8 |
| 20260505223706 | 50 | 156 | 2.0 | 7.0 | 0.00 | 0.02 | 0.02 | 60 | 1006.7 |
| 20260505223208 | 50 | 168 | 6.0 | 7.0 | 0.00 | 0.02 | 0.02 | 59 | 1006.9 |
| 20260505222706 | 50 | 147 | 4.0 | 10.0 | 0.00 | 0.02 | 0.02 | 61 | 1006.9 |
| 20260505222426 | 50 | 168 | 2.0 | 10.0 | 0.00 | 0.02 | 0.02 | 62 | 1006.5 |
| 20260505221708 | 51 | 163 | 3.0 | 9.0 | 0.00 | 0.02 | 0.02 | 63 | 1006.4 |
| 20260505221207 | 50 | 169 | 7.0 | 9.0 | 0.00 | 0.02 | 0.02 | 64 | 1006.4 |
| 20260505220706 | 50 | 113 | 2.0 | 8.0 | 0.00 | 0.02 | 0.02 | 67 | 1006.4 |
| 20260505220207 | 50 | 169 | 4.0 | 8.0 | 0.00 | 0.02 | 0.02 | 67 | 1006.4 |
| 20260505215706 | 50 | 191 | 6.0 | 8.0 | 0.00 | 0.02 | 0.02 | 67 | 1006.4 |
| 20260505215429 | 50 | 164 | 4.0 | 7.0 | 0.00 | 0.02 | 0.02 | 68 | 1006.4 |
| 20260505214707 | 50 | 216 | 2.0 | 4.0 | 0.00 | 0.02 | 0.02 | 70 | 1006.4 |
| 20260505214207 | 50 | 166 | 2.0 | 7.0 | 0.00 | 0.02 | 0.02 | 70 | 1006.5 |
| 20260505213707 | 50 | 144 | 4.0 | 7.0 | 0.00 | 0.02 | 0.02 | 70 | 1006.1 |
| 20260505213207 | 50 | 174 | 2.0 | 6.0 | 0.00 | 0.02 | 0.02 | 71 | 1006.3 |
| 20260505212706 | 50 | 147 | 2.0 | 8.0 | 0.00 | 0.02 | 0.02 | 71 | 1006.5 |
| 20260505212207 | 50 | 183 | 4.0 | 8.0 | 0.00 | 0.02 | 0.02 | 70 | 1006.1 |
| 20260505211706 | 50 | 189 | 3.0 | 6.0 | 0.00 | 0.02 | 0.02 | 72 | 1006.0 |
| 20260505211207 | 50 | 168 | 2.0 | 8.0 | 0.01 | 0.02 | 0.02 | 72 | 1006.3 |
| 20260505210707 | 50 | 163 | 5.0 | 8.0 | 0.01 | 0.02 | 0.02 | 71 | 1006.1 |
| 20260505210207 | 50 | 147 | 3.0 | 8.0 | 0.02 | 0.02 | 0.02 | 72 | 1006.1 |
| 20260505205707 | 50 | 184 | 3.0 | 8.0 | 0.02 | 0.02 | 0.02 | 72 | 1006.0 |
| 20260505205207 | 50 | 167 | 4.0 | 9.0 | 0.02 | 0.02 | 0.02 | 73 | 1006.2 |
| 20260505204707 | 50 | 164 | 2.0 | 9.0 | 0.02 | 0.02 | 0.02 | 73 | 1006.1 |
| 20260505204207 | 49 | 156 | 4.0 | 9.0 | 0.02 | 0.02 | 0.02 | 73 | 1005.9 |
| 20260505203707 | 49 | 176 | 6.0 | 9.0 | 0.02 | 0.02 | 0.02 | 73 | 1006.1 |
| 20260505203207 | 49 | 152 | 3.0 | 10.0 | 0.02 | 0.02 | 0.02 | 74 | 1006.1 |
| 20260505202707 | 49 | 165 | 7.0 | 10.0 | 0.02 | 0.02 | 0.02 | 73 | 1005.9 |
| 20260505202207 | 49 | 145 | 4.0 | 10.0 | 0.02 | 0.02 | 0.02 | 74 | 1005.7 |
| 20260505201932 | 50 | 139 | 5.0 | 10.0 | 0.02 | 0.02 | 0.02 | 72 | 1005.9 |
| 20260505201207 | 50 | 143 | 4.0 | 10.0 | 0.01 | 0.01 | 0.01 | 70 | 1006.2 |
| 20260505200707 | 51 | 159 | 4.0 | 11.0 | 0.01 | 0.01 | 0.01 | 70 | 1005.9 |
| 20260505200207 | 52 | 185 | 3.0 | 11.0 | 0.00 | 0.00 | 0.01 | 67 | 1006.0 |
| 20260505195707 | 53 | 138 | 8.0 | 17.0 | 0.00 | 0.00 | 0.00 | 62 | 1005.3 |
| 20260505195207 | 53 | 189 | 3.0 | 17.0 | 0.00 | 0.00 | 0.00 | 60 | 1005.6 |
| 20260505194929 | 54 | 120 | 6.0 | 14.0 | 0.00 | 0.00 | 0.00 | 59 | 1005.1 |
| 20260505194208 | 54 | 169 | 7.0 | 14.0 | 0.00 | 0.00 | 0.00 | 56 | 1005.0 |
| 20260505193707 | 55 | 162 | 11.0 | 13.0 | 0.00 | 0.00 | 0.00 | 53 | 1005.1 |
| 20260505193207 | 55 | 194 | 8.0 | 13.0 | 0.00 | 0.00 | 0.00 | 54 | 1004.8 |
| 20260505192707 | 55 | 161 | 7.0 | 15.0 | 0.00 | 0.00 | 0.00 | 53 | 1004.6 |
| 20260505192207 | 56 | 164 | 9.0 | 15.0 | 0.00 | 0.00 | 0.00 | 50 | 1004.8 |
| 20260505191927 | 56 | 144 | 4.0 | 14.0 | 0.00 | 0.00 | 0.00 | 51 | 1004.6 |
| 20260505191207 | 56 | 176 | 13.0 | 14.0 | 0.00 | 0.00 | 0.00 | 51 | 1004.4 |
| 20260505190708 | 56 | 140 | 8.0 | 10.0 | 0.00 | 0.00 | 0.00 | 50 | 1004.2 |
| 20260505190207 | 56 | 124 | 5.0 | 11.0 | 0.00 | 0.00 | 0.00 | 52 | 1004.3 |
| 20260505190156 | 56 | 202 | 6.0 | 11.0 | 0.00 | 0.00 | 0.00 | 52 | 1004.3 |
| 20260505185207 | 57 | 256 | 6.0 | 13.0 | 0.00 | 0.00 | 0.00 | 52 | 1004.3 |
| 20260505184707 | 57 | 151 | 6.0 | 15.0 | 0.00 | 0.00 | 0.00 | 51 | 1004.5 |
| 20260505184207 | 57 | 179 | 5.0 | 15.0 | 0.00 | 0.00 | 0.00 | 50 | 1004.3 |
| 20260505183706 | 56 | 165 | 8.0 | 14.0 | 0.00 | 0.00 | 0.00 | 51 | 1003.9 |
| 20260505183206 | 56 | 208 | 10.0 | 14.0 | 0.00 | 0.00 | 0.00 | 50 | 1004.2 |
| 20260505182707 | 57 | 139 | 4.0 | 13.0 | 0.00 | 0.00 | 0.00 | 51 | 1004.0 |
| 20260505182206 | 58 | 198 | 6.0 | 13.0 | 0.00 | 0.00 | 0.00 | 50 | 1003.9 |
| 20260505181707 | 58 | 125 | 8.0 | 11.0 | 0.00 | 0.00 | 0.00 | 50 | 1003.7 |
| 20260505181207 | 59 | 150 | 4.0 | 13.0 | 0.00 | 0.00 | 0.00 | 51 | 1003.5 |
| 20260505180706 | 59 | 173 | 6.0 | 13.0 | 0.00 | 0.00 | 0.00 | 51 | 1003.9 |
| 20260505180206 | 60 | 158 | 6.0 | 9.0 | 0.00 | 0.00 | 0.00 | 50 | 1003.7 |
| 20260505175707 | 60 | 147 | 3.0 | 9.0 | 0.00 | 0.00 | 0.00 | 53 | 1003.8 |
| 20260505175206 | 60 | 139 | 4.0 | 13.0 | 0.00 | 0.00 | 0.00 | 54 | 1003.5 |
| 20260505174708 | 61 | 67 | 2.0 | 13.0 | 0.00 | 0.00 | 0.00 | 54 | 1003.3 |
| 20260505174429 | 61 | 174 | 2.0 | 11.0 | 0.00 | 0.00 | 0.00 | 54 | 1003.3 |
| 20260505174145 | 61 | 156 | 6.0 | 11.0 | 0.00 | 0.00 | 0.00 | 54 | 1003.1 |
| 20260505173207 | 61 | 80 | 1.0 | 10.0 | 0.00 | 0.00 | 0.00 | 55 | 1002.7 |
| 20260505172709 | 61 | 206 | 4.0 | 9.0 | 0.00 | 0.00 | 0.00 | 58 | 1002.8 |
| 20260505172207 | 61 | 112 | 2.0 | 9.0 | 0.00 | 0.00 | 0.00 | 57 | 1002.9 |
| 20260505171706 | 60 | 142 | 6.0 | 9.0 | 0.00 | 0.00 | 0.00 | 57 | 1002.6 |
| 20260505171206 | 60 | 165 | 4.0 | 10.0 | 0.00 | 0.00 | 0.00 | 58 | 1002.7 |
| 20260505170708 | 61 | 146 | 6.0 | 10.0 | 0.00 | 0.00 | 0.00 | 56 | 1002.7 |
| 20260505170426 | 60 | 166 | 5.0 | 9.0 | 0.00 | 0.00 | 0.00 | 58 | 1002.3 |
| 20260505165707 | 60 | 168 | 3.0 | 11.0 | 0.00 | 0.00 | 0.00 | 59 | 1002.4 |
| 20260505165207 | 59 | 119 | 4.0 | 11.0 | 0.00 | 0.00 | 0.00 | 59 | 1002.7 |
| 20260505164707 | 59 | 150 | 6.0 | 13.0 | 0.00 | 0.00 | 0.00 | 60 | 1002.6 |
| 20260505164207 | 58 | 166 | 4.0 | 13.0 | 0.00 | 0.00 | 0.00 | 61 | 1003.0 |
| 20260505163707 | 58 | 140 | 7.0 | 9.0 | 0.00 | 0.00 | 0.00 | 61 | 1002.9 |
| 20260505163207 | 58 | 95 | 4.0 | 9.0 | 0.00 | 0.00 | 0.00 | 62 | 1002.7 |
| 20260505162707 | 58 | 95 | 3.0 | 9.0 | 0.00 | 0.00 | 0.00 | 63 | 1002.7 |
| 20260505162155 | 58 | 163 | 5.0 | 8.0 | 0.00 | 0.00 | 0.00 | 63 | 1002.9 |
| 20260505161655 | 58 | 152 | 4.0 | 10.0 | 0.00 | 0.00 | 0.00 | 63 | 1002.6 |
| 20260505161415 | 58 | 122 | 3.0 | 10.0 | 0.00 | 0.00 | 0.00 | 63 | 1002.6 |
| 20260505160655 | 58 | 163 | 2.0 | 8.0 | 0.00 | 0.00 | 0.00 | 64 | 1002.8 |
| 20260505160154 | 58 | 104 | 3.0 | 8.0 | 0.00 | 0.00 | 0.00 | 64 | 1002.1 |
| 20260505153119 | 60 | 54 | 3.0 | 9.0 | 0.00 | 0.00 | 0.00 | 63 | 1002.1 |
| 20260505152142 | 60 | 123 | 4.0 | 11.0 | 0.00 | 0.00 | 0.00 | 64 | 1001.9 |
| 20260505151643 | 61 | 97 | 7.0 | 13.0 | 0.00 | 0.00 | 0.00 | 63 | 1001.6 |
| 20260505151624 | 62 | 95 | 3.0 | 13.0 | 0.00 | 0.00 | 0.00 | 62 | 1001.6 |
| 20260505150643 | 61 | 127 | 4.0 | 9.0 | 0.00 | 0.00 | 0.00 | 62 | 1001.0 |
| 20260505150143 | 61 | 152 | 3.0 | 9.0 | 0.00 | 0.00 | 0.00 | 62 | 1001.1 |
| 20260505140631 | 61 | 23 | 2.0 | 7.0 | 0.00 | 0.00 | 0.00 | 68 | 1000.2 |
| 20260505140131 | 61 | 346 | 4.0 | 7.0 | 0.00 | 0.00 | 0.00 | 68 | 1000.1 |
| 20260505130106 | 59 | 303 | 6.0 | 13.0 | 0.00 | 0.00 | 0.00 | 72 | 999.3 |
| 20260505124825 | 59 | 44 | 4.0 | 8.0 | 0.00 | 0.00 | 0.00 | 72 | 999.1 |
| 20260505124106 | 59 | 340 | 3.0 | 9.0 | 0.00 | 0.00 | 0.00 | 72 | 999.2 |
| 20260505123606 | 59 | 8 | 3.0 | 7.0 | 0.00 | 0.00 | 0.00 | 72 | 998.9 |
| 20260505123107 | 59 | 17 | 2.0 | 7.0 | 0.00 | 0.00 | 0.00 | 73 | 999.1 |
| 20260505123043 | 59 | 16 | 1.0 | 8.0 | 0.00 | 0.00 | 0.00 | 73 | 999.2 |
| 20260505122055 | 59 | 38 | 5.0 | 10.0 | 0.00 | 0.00 | 0.00 | 73 | 998.9 |
| 20260505121555 | 59 | 330 | 2.0 | 10.0 | 0.00 | 0.00 | 0.00 | 74 | 998.8 |
| 20260505121054 | 58 | 34 | 4.0 | 9.0 | 0.00 | 0.00 | 0.00 | 74 | 998.9 |
| 20260505120555 | 58 | 86 | 2.0 | 9.0 | 0.00 | 0.00 | 0.00 | 74 | 998.8 |
| 20260505120054 | 58 | 23 | 3.0 | 10.0 | 0.00 | 0.00 | 0.00 | 75 | 999.0 |
| 20260505115554 | 58 | 87 | 4.0 | 11.0 | 0.00 | 0.00 | 0.00 | 75 | 999.2 |
| 20260505115055 | 58 | 310 | 3.0 | 11.0 | 0.00 | 0.00 | 0.00 | 76 | 999.1 |
| 20260505114555 | 57 | 313 | 1.0 | 11.0 | 0.00 | 0.00 | 0.00 | 76 | 998.8 |
| 20260505114055 | 57 | 91 | 1.0 | 11.0 | 0.00 | 0.00 | 0.00 | 76 | 998.7 |
| 20260505113554 | 56 | 47 | 9.0 | 11.0 | 0.00 | 0.00 | 0.00 | 77 | 998.9 |
| 20260505113054 | 56 | 37 | 2.0 | 10.0 | 0.00 | 0.00 | 0.00 | 77 | 999.1 |
| 20260505112554 | 57 | 42 | 3.0 | 8.0 | 0.00 | 0.00 | 0.00 | 77 | 999.0 |
| 20260505112054 | 56 | 5 | 1.0 | 8.0 | 0.00 | 0.00 | 0.00 | 77 | 998.9 |
| 20260505111554 | 56 | 66 | 2.0 | 8.0 | 0.00 | 0.00 | 0.00 | 78 | 998.7 |
| 20260505111056 | 56 | 336 | 2.0 | 8.0 | 0.00 | 0.00 | 0.00 | 78 | 998.5 |
| 20260505110554 | 56 | 132 | 2.0 | 9.0 | 0.00 | 0.00 | 0.00 | 78 | 998.5 |
| 20260505101554 | 56 | 19 | 5.0 | 13.0 | 0.00 | 0.00 | 0.00 | 76 | 997.7 |
| 20260505101044 | 56 | 15 | 5.0 | 11.0 | 0.00 | 0.00 | 0.00 | 76 | 997.6 |
| 20260505100804 | 56 | 344 | 2.0 | 11.0 | 0.00 | 0.00 | 0.00 | 76 | 998.1 |
| 20260505100043 | 56 | 5 | 4.0 | 14.0 | 0.00 | 0.00 | 0.00 | 76 | 998.1 |
| 20260505095531 | 56 | 69 | 4.0 | 14.0 | 0.00 | 0.00 | 0.00 | 76 | 998.0 |
| 20260505095031 | 57 | 54 | 2.0 | 17.0 | 0.00 | 0.00 | 0.00 | 76 | 998.1 |
| 20260505094531 | 57 | 39 | 3.0 | 17.0 | 0.00 | 0.00 | 0.00 | 76 | 998.0 |
| 20260505094253 | 56 | 0 | 6.0 | 11.0 | 0.00 | 0.01 | 0.00 | 77 | 998.0 |
| 20260505093531 | 56 | 327 | 4.0 | 11.0 | 0.00 | 0.01 | 0.00 | 77 | 998.0 |
| 20260505093031 | 56 | 329 | 1.0 | 14.0 | 0.00 | 0.01 | 0.00 | 77 | 998.0 |
| 20260505093017 | 56 | 27 | 2.0 | 14.0 | 0.00 | 0.01 | 0.00 | 77 | 997.6 |
| 20260505092239 | 56 | 103 | 2.0 | 14.0 | 0.00 | 0.01 | 0.00 | 78 | 997.7 |
| 20260505091521 | 56 | 8 | 2.0 | 14.0 | 0.00 | 0.01 | 0.00 | 77 | 997.7 |
| 20260505091020 | 56 | 8 | 4.0 | 11.0 | 0.00 | 0.01 | 0.00 | 77 | 997.7 |
| 20260505090519 | 56 | 346 | 4.0 | 11.0 | 0.00 | 0.01 | 0.00 | 77 | 997.8 |
| 20260505090018 | 56 | 11 | 2.0 | 10.0 | 0.00 | 0.01 | 0.00 | 78 | 997.8 |
| 20260505085518 | 56 | 347 | 7.0 | 10.0 | 0.00 | 0.01 | 0.00 | 78 | 997.6 |
| 20260505085457 | 56 | 20 | 4.0 | 7.0 | 0.00 | 0.01 | 0.00 | 79 | 998.0 |
| 20260505084519 | 55 | 38 | 4.0 | 4.0 | 0.00 | 0.01 | 0.00 | 80 | 998.1 |
| 20260505084019 | 55 | 25 | 1.0 | 4.0 | 0.00 | 0.01 | 0.00 | 80 | 997.8 |
| 20260505083737 | 54 | 323 | 1.0 | 2.0 | 0.00 | 0.01 | 0.00 | 80 | 997.9 |
| 20260505083018 | 54 | 20 | 0.0 | 3.0 | 0.00 | 0.01 | 0.00 | 80 | 998.0 |
| 20260505082507 | 54 | 86 | 0.0 | 3.0 | 0.00 | 0.01 | 0.00 | 80 | 998.1 |
| 20260505082007 | 53 | 32 | 2.0 | 3.0 | 0.00 | 0.01 | 0.00 | 82 | 998.1 |
| 20260505081508 | 53 | 276 | 0.0 | 2.0 | 0.00 | 0.01 | 0.00 | 81 | 998.2 |
| 20260505081006 | 53 | 242 | 0.0 | 2.0 | 0.00 | 0.01 | 0.00 | 81 | 998.1 |
| 20260505080507 | 53 | 292 | 0.0 | 2.0 | 0.00 | 0.01 | 0.00 | 80 | 998.2 |
| 20260505080007 | 53 | 314 | 0.0 | 1.0 | 0.00 | 0.01 | 0.00 | 80 | 998.4 |
| 20260505075506 | 53 | 302 | 0.0 | 1.0 | 0.00 | 0.01 | 0.00 | 80 | 998.2 |
| 20260505075007 | 53 | 306 | 1.0 | 2.0 | 0.00 | 0.01 | 0.00 | 80 | 998.3 |
| 20260505074507 | 53 | 315 | 1.0 | 2.0 | 0.00 | 0.01 | 0.00 | 80 | 998.4 |
| 20260505074229 | 54 | 333 | 0.0 | 2.0 | 0.00 | 0.01 | 0.00 | 80 | 998.4 |
| 20260505073507 | 54 | 337 | 1.0 | 3.0 | 0.00 | 0.01 | 0.00 | 80 | 998.3 |
| 20260505073452 | 54 | 15 | 1.0 | 3.0 | 0.00 | 0.01 | 0.00 | 79 | 998.2 |
| 20260505072506 | 54 | 307 | 1.0 | 2.0 | 0.00 | 0.01 | 0.00 | 79 | 998.3 |
| 20260505072007 | 54 | 355 | 0.0 | 3.0 | 0.00 | 0.01 | 0.00 | 79 | 998.1 |
| 20260505071506 | 54 | 0 | 0.0 | 3.0 | 0.00 | 0.01 | 0.00 | 79 | 998.2 |
| 20260505071006 | 54 | 307 | 1.0 | 4.0 | 0.00 | 0.01 | 0.00 | 79 | 998.4 |
| 20260505070730 | 54 | 23 | 2.0 | 6.0 | 0.00 | 0.01 | 0.00 | 79 | 998.4 |
| 20260505070009 | 54 | 298 | 2.0 | 6.0 | 0.00 | 0.01 | 0.00 | 79 | 998.5 |
| 20260505065506 | 54 | 285 | 1.0 | 4.0 | 0.00 | 0.01 | 0.00 | 79 | 998.4 |
| 20260505065007 | 54 | 319 | 1.0 | 6.0 | 0.00 | 0.01 | 0.00 | 79 | 998.6 |
| 20260505064950 | 54 | 89 | 2.0 | 7.0 | 0.00 | 0.01 | 0.00 | 79 | 998.6 |
| 20260505064007 | 54 | 16 | 3.0 | 7.0 | 0.00 | 0.01 | 0.00 | 79 | 998.8 |
| 20260505063507 | 54 | 339 | 2.0 | 7.0 | 0.00 | 0.01 | 0.00 | 78 | 998.8 |
| 20260505063227 | 54 | 320 | 4.0 | 7.0 | 0.00 | 0.01 | 0.00 | 78 | 998.8 |
| 20260505062509 | 54 | 47 | 5.0 | 6.0 | 0.00 | 0.01 | 0.00 | 78 | 998.6 |
| 20260505062007 | 54 | 62 | 2.0 | 7.0 | 0.00 | 0.01 | 0.00 | 78 | 998.7 |
| 20260505061507 | 54 | 295 | 4.0 | 7.0 | 0.00 | 0.01 | 0.00 | 78 | 998.8 |
| 20260505061007 | 54 | 354 | 2.0 | 8.0 | 0.00 | 0.01 | 0.00 | 78 | 999.0 |
| 20260505060506 | 54 | 22 | 5.0 | 9.0 | 0.00 | 0.01 | 0.00 | 77 | 999.1 |
| 20260505060006 | 54 | 25 | 5.0 | 9.0 | 0.00 | 0.01 | 0.00 | 77 | 998.8 |
| 20260505055506 | 54 | 336 | 4.0 | 9.0 | 0.00 | 0.01 | 0.00 | 77 | 998.9 |
| 20260505055006 | 54 | 294 | 4.0 | 8.0 | 0.00 | 0.01 | 0.00 | 77 | 998.9 |
| 20260505054724 | 54 | 44 | 1.0 | 6.0 | 0.00 | 0.01 | 0.00 | 76 | 999.0 |
| 20260505054007 | 55 | 21 | 3.0 | 8.0 | 0.00 | 0.01 | 0.00 | 76 | 998.7 |
| 20260505053734 | 55 | 85 | 2.0 | 8.0 | 0.00 | 0.01 | 0.00 | 76 | 999.1 |
| 20260505053007 | 55 | 7 | 2.0 | 10.0 | 0.00 | 0.01 | 0.00 | 76 | 998.6 |
| 20260505052507 | 55 | 356 | 6.0 | 10.0 | 0.00 | 0.01 | 0.00 | 75 | 998.9 |
| 20260505052007 | 55 | 319 | 2.0 | 10.0 | 0.00 | 0.01 | 0.00 | 75 | 999.1 |
| 20260505051954 | 55 | 33 | 7.0 | 10.0 | 0.00 | 0.01 | 0.00 | 75 | 999.1 |
| 20260505051007 | 55 | 343 | 4.0 | 8.0 | 0.00 | 0.01 | 0.00 | 75 | 999.2 |
| 20260505050506 | 55 | 26 | 4.0 | 8.0 | 0.00 | 0.01 | 0.00 | 74 | 999.3 |
| 20260505041506 | 56 | 65 | 1.0 | 9.0 | 0.00 | 0.01 | 0.00 | 68 | 999.2 |
| 20260505041008 | 56 | 66 | 5.0 | 9.0 | 0.00 | 0.01 | 0.00 | 67 | 999.3 |
| 20260505040507 | 57 | 21 | 3.0 | 9.0 | 0.00 | 0.01 | 0.00 | 66 | 999.2 |
| 20260505040006 | 57 | 38 | 2.0 | 8.0 | 0.00 | 0.01 | 0.00 | 65 | 999.0 |
| 20260505035507 | 57 | 313 | 2.0 | 9.0 | 0.00 | 0.01 | 0.01 | 65 | 998.9 |
| 20260505035006 | 57 | 0 | 3.0 | 9.0 | 0.00 | 0.01 | 0.01 | 64 | 999.1 |
| 20260505034506 | 57 | 4 | 5.0 | 9.0 | 0.00 | 0.01 | 0.01 | 64 | 999.4 |
| 20260505034008 | 57 | 328 | 6.0 | 9.0 | 0.00 | 0.01 | 0.01 | 63 | 999.1 |
| 20260505033507 | 57 | 40 | 5.0 | 9.0 | 0.00 | 0.01 | 0.01 | 62 | 999.3 |
| 20260505033007 | 57 | 3 | 4.0 | 11.0 | 0.00 | 0.01 | 0.01 | 60 | 999.6 |
| 20260505032948 | 57 | 18 | 4.0 | 11.0 | 0.00 | 0.01 | 0.01 | 59 | 999.5 |
| 20260505032007 | 57 | 8 | 4.0 | 10.0 | 0.00 | 0.01 | 0.01 | 59 | 999.7 |
| 20260505031507 | 56 | 355 | 2.0 | 10.0 | 0.00 | 0.01 | 0.01 | 58 | 999.6 |
| 20260505030955 | 56 | 66 | 3.0 | 8.0 | 0.00 | 0.01 | 0.01 | 57 | 999.9 |
| 20260505030455 | 56 | 307 | 1.0 | 8.0 | 0.00 | 0.01 | 0.01 | 57 | 999.9 |
| 20260505025955 | 55 | 326 | 5.0 | 6.0 | 0.00 | 0.01 | 0.01 | 57 | 999.9 |
| 20260505025455 | 55 | 41 | 1.0 | 4.0 | 0.00 | 0.01 | 0.01 | 56 | 999.7 |
| 20260505024955 | 55 | 314 | 1.0 | 4.0 | 0.00 | 0.01 | 0.01 | 56 | 1000.0 |
| 20260505024455 | 55 | 50 | 3.0 | 4.0 | 0.00 | 0.01 | 0.01 | 56 | 999.8 |
| 20260505023954 | 56 | 7 | 0.0 | 4.0 | 0.00 | 0.01 | 0.01 | 55 | 999.9 |
| 20260505023455 | 56 | 301 | 1.0 | 4.0 | 0.00 | 0.01 | 0.01 | 55 | 999.7 |
| 20260505022955 | 56 | 319 | 0.0 | 4.0 | 0.00 | 0.01 | 0.01 | 55 | 1000.0 |
| 20260505022455 | 56 | 56 | 1.0 | 4.0 | 0.00 | 0.01 | 0.01 | 54 | 999.9 |
| 20260505021955 | 56 | 26 | 2.0 | 9.0 | 0.00 | 0.01 | 0.01 | 53 | 999.9 |
| 20260505021722 | 57 | 97 | 4.0 | 11.0 | 0.00 | 0.01 | 0.01 | 53 | 1000.1 |
| 20260505020954 | 57 | 83 | 1.0 | 6.0 | 0.00 | 0.01 | 0.01 | 52 | 999.8 |
| 20260505020455 | 57 | 41 | 3.0 | 4.0 | 0.00 | 0.01 | 0.01 | 52 | 1000.0 |
| 20260505015957 | 57 | 18 | 3.0 | 9.0 | 0.00 | 0.01 | 0.01 | 51 | 1000.1 |
| 20260505015706 | 58 | 339 | 0.0 | 9.0 | 0.00 | 0.01 | 0.01 | 50 | 999.9 |
| 20260505014943 | 58 | 35 | 4.0 | 7.0 | 0.00 | 0.01 | 0.01 | 50 | 999.7 |
| 20260505014708 | 57 | 18 | 2.0 | 7.0 | 0.00 | 0.01 | 0.01 | 49 | 999.8 |